History for Boise, ID on Tuesday, August 4, 2015

Jump to data by:

Latest visited Airport Codes: KBOI

Data type:
 

« Previous Day | Next Day »

 
Daily Summary
Actual Average Record
Temperature
Mean Temperature 74 °F 77 °F  
Max Temperature 84 °F 93 °F 110 °F (1961)
Min Temperature 66 °F 62 °F 44 °F (1896)
Degree Days
Heating Degree Days 0 0  
Month to date heating degree days 0  
Since 1 June heating degree days 72  
Since 1 July heating degree days 8  
Cooling Degree Days 8 12  
Month to date cooling degree days 48  
Year to date cooling degree days 573  
Since 1 June cooling degree days 529  
Growing Degree Days 24 (Base 50)    
Moisture
Dew Point 52 °F    
Average Humidity 49    
Maximum Humidity 66    
Minimum Humidity 31    
Precipitation
Precipitation 0.00 in 0.01 in 0.11 in (1950)
Month to date precipitation 0.03  
Year to date precipitation 7.29  
Snow
Snow - 0.00 in 0.00 in (2006)
Month to date snowfall 0.0  
Since 1 July snowfall 0.0  
Snow Depth -    
Sea Level Pressure
Sea Level Pressure 29.92 in    
Wind
Wind Speed 11 mph ()    
Max Wind Speed 29 mph    
Max Gust Speed 39 mph    
Visibility 9.1 miles    
Events Rain , Thunderstorm   
Key: T is trace of precipitation, MM is missing value
Source: Averaged Metar Reports
Time (MDT) Temp. Dew Point Humidity Sea Level Pressure Visibility Wind Direction Wind Speed Gust Speed Precip. Events Conditions
12:53 AM 73.9 °F 50.0 °F 43% 29.81 in 10.0 miles SW 4.6 mph - N/A   Clear
1:24 AM 75.2 °F 46.4 °F 36% 29.97 in 3.0 miles West 23.0 mph 35.7 mph N/A   Haze
1:32 AM 75.2 °F 46.4 °F 36% 29.97 in 4.0 miles WNW 27.6 mph 36.8 mph N/A   Haze
1:53 AM 72.0 °F 51.1 °F 48% 29.88 in 7.0 miles NNW 28.8 mph 39.1 mph 0.00 in Rain Light Rain
2:53 AM 69.1 °F 54.0 °F 58% 29.90 in 9.0 miles North 21.9 mph 31.1 mph 0.00 in Rain Light Rain
3:20 AM 71.6 °F 51.8 °F 50% 30.02 in 10.0 miles NNW 17.3 mph - 0.00 in   Mostly Cloudy
3:46 AM 71.6 °F 51.8 °F 50% 29.99 in 10.0 miles NNE 16.1 mph - 0.00 in Thunderstorm Partly Cloudy
3:53 AM 71.1 °F 52.0 °F 51% 29.90 in 10.0 miles North 15.0 mph 23.0 mph 0.00 in Thunderstorm Partly Cloudy
4:01 AM 71.6 °F 51.8 °F 50% 29.96 in 10.0 miles NNE 20.7 mph 26.5 mph 0.00 in Rain Light Rain
4:53 AM 73.0 °F 51.1 °F 46% 29.88 in 10.0 miles Variable 5.8 mph - 0.00 in Rain , Thunderstorm Light Thunderstorms and Rain
5:22 AM 69.8 °F 55.4 °F 60% 29.93 in 10.0 miles South 6.9 mph - 0.00 in Thunderstorm Partly Cloudy
5:43 AM 69.8 °F 55.4 °F 60% 29.93 in 10.0 miles SSE 9.2 mph - 0.00 in Rain Light Rain
5:53 AM 66.9 °F 55.0 °F 66% 29.83 in 10.0 miles Variable 5.8 mph - 0.00 in   Mostly Cloudy
6:53 AM 66.0 °F 54.0 °F 65% 29.88 in 10.0 miles South 4.6 mph - N/A   Clear
7:53 AM 68.0 °F 54.0 °F 61% 29.91 in 10.0 miles WNW 3.5 mph - N/A   Clear
8:53 AM 72.0 °F 52.0 °F 49% 29.91 in 10.0 miles SE 3.5 mph - N/A   Partly Cloudy
9:53 AM 75.0 °F 51.1 °F 43% 29.92 in 10.0 miles Calm Calm - N/A   Clear
10:53 AM 78.1 °F 51.1 °F 39% 29.91 in 10.0 miles Calm Calm - N/A   Clear
11:53 AM 81.0 °F 50.0 °F 34% 29.91 in 10.0 miles Calm Calm - N/A   Clear
12:53 PM 84.0 °F 50.0 °F 31% 29.90 in 10.0 miles Variable 4.6 mph - N/A   Clear

Powered by the Weather Underground, Inc.